Location: Treviso
(45.6669°N, 12.2430°E)
Time: 06:46:38
(UTC+01:00)

ISS - Pass Details

Date: 14 November 2018
Orbit: 402 x 408 km, 51.6° (Epoch: 16 November)

Event Time Altitude Azimuth Distance (km) Brightness Sun altitude
Exits shadow 04:12:21 11° 108° (ESE) 1,424 -0.3 -30.8°
Drops below altitude 10° 04:12:23 10° 108° (ESE) 1,440 -0.3 -30.8°
Sets 04:14:32 0° 112° (ESE) 2,317 0.9 -30.4°
